Content
SEND FEEDBACK

Daily
Averages
Monthly
Summary
United States of America

AGAT, GUAM


Home > North America > United States > Guam
Elevation: 364 feet     Latitude: 13 33N     Longitude: 144 50E

WEATHER
 
SELECT A DAY
Number of Records: 213,810;   Date Range: 1/1/95 - 10/21/14
 
SHARE

PRINT THIS DATA

[ ← Previous Day ]
WEATHER ALMANAC - DECEMBER 31, 2013
[ Next Day → ]
[ °C ]   °F
Weather ElementAverageHighLow
Temperature80.6 °F84.9 °F (12:54 pm)77 °F (1:54 am)
Dewpoint73 °F75 °F (8:54 am)71.1 °F (12:54 pm)
Humidity78.3 %90 % (3:54 am)63 % (12:54 pm)
Barometer29.87 in29.93 in (8:54 am)29.81 in (3:54 pm)
Wind Speed12.3 mph20.7 mph (12:54 pm)
Wind Gust24.2 mph (1:54 pm)
Weather ElementAverage
Visibility9.8 mi
Wind DirectionENE (54 °)

Weather ElementTotal
Precipitation---
Cooling Degree Days16 (Base 65)
Growing Degree Days31 (Base 50)
Averaged from 25 records on December 31, 2013
WEATHER CONDITIONS BREAKOUT
WIND DIRECTION BREAKOUT
WEATHER BY HOUR - DECEMBER 31, 2013
[ °C ]   °F
Local TimeTemperatureDewpointHumidityBarometerVisibilityWind DirectionWind SpeedGust SpeedPrecipitationEventsConditions
1:54 AM77.0 °F73.0 °F88 %29.86 in10.0 miNE (50°)6.9 mphPartly Cloudy
2:54 AM78.1 °F73.0 °F84 %29.84 in10.0 miNE (50°)6.9 mphClear
3:54 AM77.0 °F73.9 °F90 %29.84 in10.0 miNorth (10°)4.6 mph0.00 inMostly Cloudy
4:54 AM77.0 °F73.9 °F90 %29.85 in10.0 miNE (50°)5.8 mphMostly Cloudy
5:54 AM77.0 °F73.0 °F88 %29.86 in10.0 miNE (50°)8.1 mphClear
6:54 AM77.0 °F73.9 °F90 %29.88 in10.0 miNE (50°)8.1 mphPartly Cloudy
7:54 AM78.1 °F73.9 °F87 %29.91 in6.0 miNE (50°)11.5 mph0.00 inRainLight Rain
8:54 AM81.0 °F75.0 °F82 %29.93 in10.0 miENE (60°)12.7 mph0.00 inScattered Clouds
9:54 AM84.0 °F72.0 °F67 %29.93 in10.0 miENE (70°)15.0 mph23.0 mphScattered Clouds
10:54 AM82.9 °F73.0 °F72 %29.92 in10.0 miENE (70°)19.6 mphMostly Cloudy
11:54 AM82.0 °F72.0 °F71 %29.89 in10.0 miENE (60°)11.5 mph0.00 inOvercast
12:54 PM84.9 °F71.1 °F63 %29.87 in10.0 miENE (60°)20.7 mphMostly Cloudy
1:54 PM84.9 °F71.1 °F63 %29.85 in10.0 miENE (70°)16.1 mph24.2 mph0.00 inMostly Cloudy
2:54 PM84.9 °F72.0 °F65 %29.83 in10.0 miENE (60°)18.4 mph23.0 mphPartly Cloudy
3:54 PM84.0 °F73.9 °F72 %29.81 in10.0 miNE (40°)18.4 mphMostly Cloudy
4:41 PM82.4 °F71.6 °F70 %29.84 in10.0 miNE (50°)17.3 mph24.2 mphMostly Cloudy
4:51 PM82.4 °F73.4 °F74 %29.84 in10.0 miNE (50°)16.1 mphScattered Clouds
4:54 PM82.9 °F73.0 °F72 %29.82 in10.0 miNE (50°)15.0 mphScattered Clouds
5:54 PM81.0 °F73.0 °F77 %29.83 in10.0 miNE (50°)12.7 mphPartly Cloudy
6:54 PM80.1 °F73.0 °F79 %29.85 in10.0 miNE (50°)12.7 mphClear
7:54 PM80.1 °F73.9 °F81 %29.87 in10.0 miNE (50°)9.2 mph0.00 inRainLight Rain
8:54 PM79.0 °F73.0 °F82 %29.88 in10.0 miENE (60°)10.4 mph0.00 inClear
9:54 PM79.0 °F73.0 °F82 %29.88 in10.0 miENE (60°)11.5 mphPartly Cloudy
10:54 PM79.0 °F73.0 °F82 %29.88 in10.0 miENE (70°)10.4 mphClear
11:54 PM78.1 °F73.9 °F87 %29.88 in10.0 miENE (60°)6.9 mphClear
Hourly data recorded from PGUM, located miles away from Agat, Guam







STORIES FROM OUR PARTNERS